SCP
0 0 0 0 0 0 0 0 0 0 0 0 0 0 0 0 0 0 0 0 0 0 0 0 0 0 0 0 0 0 0 0 0 0 0 0 0 0 0 0 0 0 0 0
0 0 0 0 0 0 0 0 0 0 0 0 0 0 0 0 0 0 0 0 0 0 0 0 0 0 0 0 0 0 0 0 0 0 0 0 0 0 0 0 0 0 0 0
0 0 0 0 0 0 0 0 0 0 0 0 0 0 0 0 0 0 0 0 0 0 0 0 0 0 0 0 0 0 0 0 0 0 0 0 0 0 0 0 0 0 0 0
-0 0 0 0 0 0 0 0 0 0 0 0 0 0 0 0 0 0 0 0 0 0 0 0 0 0 0 0 0 0 0 0 0 0 0 0 0 0 0 0 0 0 0 0
0 0 0 0 0 0 0 0 0 0 0 0 0 0 0 0 0 0 0 0 0 0 0 0 0 0 0 0 0 0 0 0 0 0 0 0 0 0 0 0 0 0 0 0
0 0 0 0 0 0 0 0 0 0 0 0 0 0 0 0 0 0 0 0 0 0 0 0 0 0 0 0 0 0 0 0 0 0 0 0 0 0 0 0 0 0 0 0
0 0 0 0 0 0 0 0 0 0 0 0 0 0 0 0 0 0 0 0 0 0 0 0 0 0 0 0 0 0 0 0 0 0 0 0 0 0 0 0 0 0 0 0
0 0 0 0 0 0 0 0 0 0 0 0 0 0 0 0 0 0 0 0 0 0 0 0 0 0 0 0 0 0 0 0 0 0 0 0 0 0 0 0 0 0 0 0
0 0 0 0 0 0 0 0 0 0 0 0 0 0 0 0 0 0 0 0 0 0 0 0 0 0 0 0 0 0 0 0 0 0 0 0 0 0 0 0 0 0 0 0
0 0 0 0 0 0 0 0 0 0 0 0 0 0 0 0 0 0 0 0 0 0 0 0 0 0 0 0 0 0 0 0 0 0 0 0 0 0 0 0 0 0 0 0
0 0 0 0 0 0 0 0 0 0 0 0 0 0 0 0 0 0 0 0 0 0 0 0 0 0 0 0 0 0 0 0 0 0 0 0 0 0 0 0 0 0 0 0
0 0 0 0 0 0 0 0 0 0 0 0 0 0 0 0 0 0 0 0 0 0 0 0 0 0 0 0 0 0 0 0 0 0 0 0 0 0 0 0 0 0 0 0
0 0 0 0 0 0 0 0 0 0 0 0 0 0 0 0 0 0 0 0 0 0 0 0 0 0 0 0 0 0 0 0 0 0 0 0 0 0 0 0 0 0 0 0
0 0 0 0 0 0 0 0 0 0 0 0 0 0 0 0 0 0 0 0 0 0 0 0 0 0 0 0 0 0 0 0 0 0 0 0 0 0 0 0 0 0 0 0
0 0 0 0 0 0 0 0 0 0 0 0 0 0 0 0 0 0 0 0 0 0 0 0 0 0 0 0 0 0 0 0 0 0 0 0 0 0 0 0 0 0 0 0
0 0 0 0 0 0 0 0 0 0 0 0 0 0 0 0 0 0 0 0 0 0 0 0 0 0 0 0 0 0 0 0 0 0 0 0 0 0 0 0 0 0 0 0
0 0 0 0 0 0 0 0 0 0 0 0 0 0 0 0 0 0 0 0 0 0 0 0 0 0 0 0 0 0 0 0 0 0 0 0 0 0 0 0 0 0 0 0
0 0 0 0 0 0 0 0 0 0 0 0 0 0 0 0 0 0 0 0 0 0 0 0 0 0 0 0 0 0 0 0 0 0 0 0 0 0 0 0 0 0 0 0
0 0 0 0 0 0 0 0 0 0 0 0 0 0 0 0 0 0 0 0 0 0 0 0 0 0 0 0 0 0 0 0 0 0 0 0 0 0 0 0 0 0 0 0
0 0 0 0 0 0 0 0 0 0 0 0 0 0 0 0 0 0 0 0 0 0 0 0 0 0 0 0 0 0 0 0 0 0 0 0 0 0 0 0 0 0 0 0
0 0 0 0 0 0 0 0 0 0 0 0 0 0 0 0 0 0 0 0 0 0 0 0 0 0 0 0 0 0 0 0 0 0 0 0 0 0 0 0 0 0 0 0
0 0 0 0 0 0 0 0 0 0 0 0 0 0 0 0 0 0 0 0 0 0 0 0 0 0 0 0 0 0 0 0 0 0 0 0 0 0 0 0 0 0 0 0
0 0 0 0 0 0 0 0 0 0 0 0 0 0 0 0 0 0 0 0 0 0 0 0 0 0 0 0 0 0 0 0 0 0 0 0 0 0 0 0 0 0 0 0
0 0 0 0 0 0 0 0 0 0 0 0 0 0 0 0 0 0 0 0 0 0 0 0 0 0 0 0 0 0 0 0 0 0 0 0 0 0 0 0 0 0 0 0
0 0 0 0 0 0 0 0 0 0 0 0 0 0 0 0 0 0 0 0 0 0 0 0 0 0 0 0 0 0 0 0 0 0 0 0 0 0 0 0 0 0 0 0
0 0 0 0 0 0 0 0 0 0 0 0 0 0 0 0 0 0 0 0 0 0 0 0 0 0 0 0 0 0 0 0 0 0 0 0 0 0 0 0 0 0 0 0
Wind_Speed_500mb
12 12 6 4 3 4 5 3 4 2 4 6 5 9 9 2 7 13 15 13 12 16 20 25 29 32 37 36 37 37 34 29 29 32 36 35 31 26 23 22 21 19 19 21
9 6 5 7 9 9 10 4 6 7 8 5 9 17 13 15 11 17 18 15 13 14 17 18 18 19 25 29 35 37 36 28 22 24 29 32 30 28 26 25 21 21 21 25
10 3 11 7 12 9 6 4 5 6 13 6 13 13 7 6 10 16 17 15 12 11 10 9 8 9 13 23 28 35 35 28 22 22 27 31 30 27 24 22 23 23 24 26
10 10 5 7 8 4 2 4 2 5 7 6 9 10 11 11 13 14 17 19 15 12 9 7 5 5 9 14 23 32 35 30 25 23 24 27 29 28 27 28 27 26 26 27
3 8 10 10 2 3 3 6 4 5 7 8 8 6 15 3 13 17 29 26 21 17 12 8 8 9 10 14 20 30 35 33 28 25 25 27 29 30 31 31 32 31 30 31
5 6 7 3 4 5 3 4 10 7 6 5 6 7 12 9 11 8 22 32 26 21 17 13 10 10 14 16 19 25 30 31 29 28 29 29 31 32 32 33 35 36 37 37
8 4 6 9 3 4 10 11 7 11 7 10 6 2 20 9 11 9 30 39 29 22 18 15 13 12 13 17 21 24 26 27 26 26 25 25 25 27 31 34 38 42 45 46
7 13 5 10 5 2 6 10 9 9 4 11 3 12 11 4 16 14 25 39 31 27 23 19 17 15 14 15 16 18 18 18 18 19 20 21 24 26 29 32 35 38 40 42
5 8 3 8 7 5 3 5 6 13 3 6 6 16 16 7 7 6 31 37 37 32 28 25 22 19 17 15 14 12 12 11 11 12 15 18 22 26 30 34 38 42 45 48
4 8 3 7 3 10 7 4 7 7 2 11 10 11 12 12 15 10 24 42 41 39 38 35 32 29 25 20 15 12 11 11 13 15 19 23 27 31 34 38 42 45 46 49
7 7 9 3 6 13 3 4 7 5 7 9 5 11 15 14 9 20 40 54 49 46 43 39 35 32 29 25 19 15 14 14 16 20 24 29 34 38 42 45 47 50 51 53
1 6 6 16 1 2 4 10 10 8 12 8 3 16 5 8 12 19 40 51 52 51 47 46 44 40 34 27 22 19 18 19 21 25 32 39 44 46 47 47 47 48 49 48
6 3 7 14 7 8 6 8 6 4 4 15 4 18 4 9 16 21 32 39 58 58 54 53 49 41 34 28 24 21 19 22 28 33 37 42 44 46 47 46 46 46 47 46
4 4 14 13 13 6 6 8 10 11 5 16 18 52 23 28 11 27 34 45 54 62 58 55 50 42 35 31 27 22 21 29 34 37 40 42 44 47 49 50 52 52 53 53
6 11 3 7 12 9 14 23 17 22 26 18 52 18 35 26 13 48 49 52 47 59 64 60 49 40 37 36 33 28 32 37 38 40 43 43 43 45 46 47 49 51 53 55
2 5 4 10 9 11 11 32 31 36 32 21 41 48 50 70 52 45 46 51 51 53 66 57 44 40 42 44 42 37 41 41 42 44 44 40 40 42 44 47 51 53 55 58
2 7 5 12 7 10 14 21 26 7 7 10 11 24 9 11 25 42 42 38 39 42 49 54 46 41 40 37 36 40 42 42 44 43 42 40 45 52 54 57 62 64 66 67
9 8 3 9 8 1 14 7 7 17 12 20 21 31 31 35 41 43 41 36 32 26 28 47 47 36 27 29 34 38 39 43 45 45 49 52 57 62 62 63 67 69 72 73
7 8 3 3 5 16 15 7 3 7 10 13 16 26 42 33 27 45 43 40 31 26 24 26 30 29 33 37 39 44 46 46 49 52 57 58 61 65 64 65 66 66 71 74
2 2 6 6 2 10 10 2 3 3 10 11 7 22 29 8 7 19 33 17 22 30 27 24 27 35 43 45 42 47 50 49 53 56 57 58 60 64 67 67 68 70 71 76
3 4 22 12 9 18 22 13 13 9 12 26 25 45 40 14 46 47 23 22 24 24 26 32 42 48 46 40 40 47 48 53 52 53 54 57 61 64 67 70 71 75 77 79
12 11 9 4 3 18 10 6 9 7 47 52 61 61 64 68 66 45 39 38 36 39 42 48 52 51 45 39 40 45 50 50 54 58 63 66 68 69 71 75 76 79 82 84
8 11 8 19 16 5 7 26 43 59 59 50 63 73 72 71 69 67 69 64 55 55 53 55 51 50 46 41 41 51 58 58 63 68 72 72 72 74 74 77 81 85 83 81
8 14 7 5 12 34 42 57 49 63 67 72 70 67 70 78 78 80 75 69 70 67 60 58 52 51 53 46 48 53 56 57 65 72 77 78 79 81 81 82 85 90 83 79
6 6 6 11 33 40 16 50 57 59 64 69 68 68 71 72 76 76 81 86 79 72 67 61 54 52 54 50 51 52 52 57 67 72 77 79 79 80 80 79 80 81 81 77
24 11 6 13 27 20 36 49 55 68 72 73 72 77 79 70 68 71 70 67 74 74 67 61 54 52 54 53 56 57 54 60 68 72 76 79 79 80 81 82 86 80 82 71
Wind_Direction_500mb
10 66 53 349 316 283 309 295 308 329 36 349 330 278 286 235 170 176 191 206 231 250 261 269 269 260 250 241 232 229 236 244 245 243 240 241 246 250 257 262 266 276 282 293
31 85 306 297 21 68 38 31 321 290 15 0 3 280 260 206 219 217 210 220 245 267 277 283 283 277 244 235 228 225 229 236 251 250 245 245 245 249 255 258 262 280 281 296
101 0 337 60 31 41 44 26 347 260 327 59 338 290 239 214 207 200 208 216 229 249 262 266 280 261 241 225 217 220 225 231 246 254 244 243 246 253 256 256 263 270 283 295
83 335 51 72 78 26 170 324 309 355 42 256 19 278 286 222 224 218 215 215 222 231 246 244 235 223 222 218 212 206 212 223 236 242 242 245 248 254 258 262 264 272 283 294
272 11 25 62 339 335 145 39 44 74 77 36 354 63 270 44 247 232 220 213 212 217 224 228 216 207 203 202 200 204 209 218 226 231 238 243 248 255 259 261 264 269 279 292
66 39 51 9 26 38 33 48 38 56 81 9 296 114 278 195 215 203 209 208 207 207 211 211 204 198 199 194 196 202 214 221 230 239 245 249 252 255 256 258 264 271 278 286
357 11 344 31 351 33 59 49 334 354 9 229 310 329 246 292 279 236 200 201 203 209 217 221 216 205 198 198 202 207 214 225 233 242 248 253 258 262 266 270 273 277 279 282
99 334 24 358 79 157 68 131 147 233 303 273 353 243 252 284 315 272 228 201 202 211 218 220 215 207 200 194 194 200 210 221 230 238 249 257 264 270 276 279 282 285 288 289
93 288 338 32 10 51 264 58 150 104 44 34 251 292 308 6 330 180 179 191 204 211 215 213 208 201 194 186 185 191 202 215 234 251 266 275 281 283 285 287 288 288 290 289
147 354 323 302 59 33 134 158 42 4 331 289 293 290 249 292 249 232 211 208 213 216 216 213 209 205 203 203 207 221 239 258 270 281 289 295 296 295 293 294 293 292 293 293
122 96 287 29 196 184 29 340 40 125 147 204 284 254 214 229 236 223 227 222 222 222 222 218 217 215 219 224 232 251 264 275 289 296 299 299 298 297 296 294 293 292 291 291
58 142 260 230 249 251 202 205 166 132 261 240 207 260 32 218 263 260 253 240 237 236 232 223 220 220 224 232 241 253 263 275 287 296 301 301 299 297 295 296 296 295 295 293
164 307 344 334 16 354 233 219 172 118 82 224 147 270 327 281 287 271 264 257 244 238 229 225 224 226 229 232 241 253 272 289 295 296 300 300 298 296 297 298 299 299 300 300
167 197 188 205 210 145 220 238 205 148 149 259 216 271 304 284 273 283 281 286 264 238 231 229 229 226 228 234 243 254 284 300 297 299 300 302 299 296 297 298 298 299 300 301
132 216 232 253 224 208 218 240 210 200 225 211 271 248 270 276 249 289 293 293 277 246 232 230 230 234 238 241 245 260 293 301 297 296 294 293 292 293 295 296 296 296 297 299
132 262 99 284 317 245 264 258 247 235 255 269 266 280 269 281 283 279 289 286 276 264 240 234 235 241 248 252 253 270 291 298 294 292 288 288 292 298 300 301 302 302 301 300
208 114 57 265 353 340 303 238 226 193 221 169 215 252 355 290 275 287 295 291 283 279 256 237 237 251 259 261 260 274 284 293 295 290 286 288 295 301 301 302 301 301 300 299
162 95 109 273 11 337 250 204 180 196 237 236 282 278 284 283 292 291 284 280 285 286 265 241 242 260 249 271 282 288 288 290 295 289 288 290 298 300 299 297 296 295 295 294
213 115 307 249 203 305 301 28 74 173 277 246 232 269 294 310 305 293 286 265 265 266 258 244 248 251 274 285 292 291 292 289 288 288 288 293 297 297 298 297 298 299 297 296
43 151 156 74 147 250 239 0 29 171 298 354 264 295 297 302 318 290 287 250 267 267 249 234 255 275 284 288 283 285 289 291 291 294 294 292 292 294 297 299 301 302 299 297
134 195 226 216 253 281 254 258 303 76 274 336 323 316 295 228 273 285 263 259 280 251 257 276 283 285 284 281 280 283 289 291 298 296 293 291 293 296 298 299 300 301 301 299
187 165 198 142 180 278 212 111 162 280 320 316 315 312 301 296 292 275 270 263 271 263 277 287 284 281 279 277 278 284 288 298 299 299 297 295 295 296 298 300 300 299 300 299
274 201 183 185 213 258 217 259 293 313 319 327 323 322 311 302 287 284 283 273 277 269 278 285 278 276 272 276 282 289 295 299 300 298 297 296 297 298 298 297 297 297 298 297
240 225 221 51 241 260 295 314 340 336 330 324 320 317 311 305 301 291 284 277 275 269 276 282 274 270 274 278 284 288 295 300 300 298 295 295 295 296 294 294 294 296 298 298
218 155 218 260 289 302 350 338 340 341 340 339 332 323 316 310 306 302 295 287 278 276 278 278 270 269 274 280 284 289 296 303 299 297 296 296 295 294 294 294 295 296 296 294
212 217 188 276 357 343 334 350 352 347 345 343 341 340 338 327 310 303 299 294 290 286 277 273 267 268 275 282 287 292 299 304 300 296 295 294 294 294 295 295 295 293 293 288
Wind_Speed_850mb
12 12 6 4 3 4 5 3 4 2 4 6 5 9 9 2 7 13 15 13 12 16 20 25 29 32 37 36 37 37 34 29 29 32 36 35 31 26 23 22 21 19 19 21
9 6 5 7 9 9 10 4 6 7 8 5 9 17 13 15 11 17 18 15 13 14 17 18 18 19 25 29 35 37 36 28 22 24 29 32 30 28 26 25 21 21 21 25
10 3 11 7 12 9 6 4 5 6 13 6 13 13 7 6 10 16 17 15 12 11 10 9 8 9 13 23 28 35 35 28 22 22 27 31 30 27 24 22 23 23 24 26
10 10 5 7 8 4 2 4 2 5 7 6 9 10 11 11 13 14 17 19 15 12 9 7 5 5 9 14 23 32 35 30 25 23 24 27 29 28 27 28 27 26 26 27
3 8 10 10 2 3 3 6 4 5 7 8 8 6 15 3 13 17 29 26 21 17 12 8 8 9 10 14 20 30 35 33 28 25 25 27 29 30 31 31 32 31 30 31
5 6 7 3 4 5 3 4 10 7 6 5 6 7 12 9 11 8 22 32 26 21 17 13 10 10 14 16 19 25 30 31 29 28 29 29 31 32 32 33 35 36 37 37
8 4 6 9 3 4 10 11 7 11 7 10 6 2 20 9 11 9 30 39 29 22 18 15 13 12 13 17 21 24 26 27 26 26 25 25 25 27 31 34 38 42 45 46
7 13 5 10 5 2 6 10 9 9 4 11 3 12 11 4 16 14 25 39 31 27 23 19 17 15 14 15 16 18 18 18 18 19 20 21 24 26 29 32 35 38 40 42
5 8 3 8 7 5 3 5 6 13 3 6 6 16 16 7 7 6 31 37 37 32 28 25 22 19 17 15 14 12 12 11 11 12 15 18 22 26 30 34 38 42 45 48
4 8 3 7 3 10 7 4 7 7 2 11 10 11 12 12 15 10 24 42 41 39 38 35 32 29 25 20 15 12 11 11 13 15 19 23 27 31 34 38 42 45 46 49
7 7 9 3 6 13 3 4 7 5 7 9 5 11 15 14 9 20 40 54 49 46 43 39 35 32 29 25 19 15 14 14 16 20 24 29 34 38 42 45 47 50 51 53
1 6 6 16 1 2 4 10 10 8 12 8 3 16 5 8 12 19 40 51 52 51 47 46 44 40 34 27 22 19 18 19 21 25 32 39 44 46 47 47 47 48 49 48
6 3 7 14 7 8 6 8 6 4 4 15 4 18 4 9 16 21 32 39 58 58 54 53 49 41 34 28 24 21 19 22 28 33 37 42 44 46 47 46 46 46 47 46
4 4 14 13 13 6 6 8 10 11 5 16 18 52 23 28 11 27 34 45 54 62 58 55 50 42 35 31 27 22 21 29 34 37 40 42 44 47 49 50 52 52 53 53
6 11 3 7 12 9 14 23 17 22 26 18 52 18 35 26 13 48 49 52 47 59 64 60 49 40 37 36 33 28 32 37 38 40 43 43 43 45 46 47 49 51 53 55
2 5 4 10 9 11 11 32 31 36 32 21 41 48 50 70 52 45 46 51 51 53 66 57 44 40 42 44 42 37 41 41 42 44 44 40 40 42 44 47 51 53 55 58
2 7 5 12 7 10 14 21 26 7 7 10 11 24 9 11 25 42 42 38 39 42 49 54 46 41 40 37 36 40 42 42 44 43 42 40 45 52 54 57 62 64 66 67
9 8 3 9 8 1 14 7 7 17 12 20 21 31 31 35 41 43 41 36 32 26 28 47 47 36 27 29 34 38 39 43 45 45 49 52 57 62 62 63 67 69 72 73
7 8 3 3 5 16 15 7 3 7 10 13 16 26 42 33 27 45 43 40 31 26 24 26 30 29 33 37 39 44 46 46 49 52 57 58 61 65 64 65 66 66 71 74
2 2 6 6 2 10 10 2 3 3 10 11 7 22 29 8 7 19 33 17 22 30 27 24 27 35 43 45 42 47 50 49 53 56 57 58 60 64 67 67 68 70 71 76
3 4 22 12 9 18 22 13 13 9 12 26 25 45 40 14 46 47 23 22 24 24 26 32 42 48 46 40 40 47 48 53 52 53 54 57 61 64 67 70 71 75 77 79
12 11 9 4 3 18 10 6 9 7 47 52 61 61 64 68 66 45 39 38 36 39 42 48 52 51 45 39 40 45 50 50 54 58 63 66 68 69 71 75 76 79 82 84
8 11 8 19 16 5 7 26 43 59 59 50 63 73 72 71 69 67 69 64 55 55 53 55 51 50 46 41 41 51 58 58 63 68 72 72 72 74 74 77 81 85 83 81
8 14 7 5 12 34 42 57 49 63 67 72 70 67 70 78 78 80 75 69 70 67 60 58 52 51 53 46 48 53 56 57 65 72 77 78 79 81 81 82 85 90 83 79
6 6 6 11 33 40 16 50 57 59 64 69 68 68 71 72 76 76 81 86 79 72 67 61 54 52 54 50 51 52 52 57 67 72 77 79 79 80 80 79 80 81 81 77
24 11 6 13 27 20 36 49 55 68 72 73 72 77 79 70 68 71 70 67 74 74 67 61 54 52 54 53 56 57 54 60 68 72 76 79 79 80 81 82 86 80 82 71
Wind_Direction_850mb
10 66 53 349 316 283 309 295 308 329 36 349 330 278 286 235 170 176 191 206 231 250 261 269 269 260 250 241 232 229 236 244 245 243 240 241 246 250 257 262 266 276 282 293
31 85 306 297 21 68 38 31 321 290 15 0 3 280 260 206 219 217 210 220 245 267 277 283 283 277 244 235 228 225 229 236 251 250 245 245 245 249 255 258 262 280 281 296
101 0 337 60 31 41 44 26 347 260 327 59 338 290 239 214 207 200 208 216 229 249 262 266 280 261 241 225 217 220 225 231 246 254 244 243 246 253 256 256 263 270 283 295
83 335 51 72 78 26 170 324 309 355 42 256 19 278 286 222 224 218 215 215 222 231 246 244 235 223 222 218 212 206 212 223 236 242 242 245 248 254 258 262 264 272 283 294
272 11 25 62 339 335 145 39 44 74 77 36 354 63 270 44 247 232 220 213 212 217 224 228 216 207 203 202 200 204 209 218 226 231 238 243 248 255 259 261 264 269 279 292
66 39 51 9 26 38 33 48 38 56 81 9 296 114 278 195 215 203 209 208 207 207 211 211 204 198 199 194 196 202 214 221 230 239 245 249 252 255 256 258 264 271 278 286
357 11 344 31 351 33 59 49 334 354 9 229 310 329 246 292 279 236 200 201 203 209 217 221 216 205 198 198 202 207 214 225 233 242 248 253 258 262 266 270 273 277 279 282
99 334 24 358 79 157 68 131 147 233 303 273 353 243 252 284 315 272 228 201 202 211 218 220 215 207 200 194 194 200 210 221 230 238 249 257 264 270 276 279 282 285 288 289
93 288 338 32 10 51 264 58 150 104 44 34 251 292 308 6 330 180 179 191 204 211 215 213 208 201 194 186 185 191 202 215 234 251 266 275 281 283 285 287 288 288 290 289
147 354 323 302 59 33 134 158 42 4 331 289 293 290 249 292 249 232 211 208 213 216 216 213 209 205 203 203 207 221 239 258 270 281 289 295 296 295 293 294 293 292 293 293
122 96 287 29 196 184 29 340 40 125 147 204 284 254 214 229 236 223 227 222 222 222 222 218 217 215 219 224 232 251 264 275 289 296 299 299 298 297 296 294 293 292 291 291
58 142 260 230 249 251 202 205 166 132 261 240 207 260 32 218 263 260 253 240 237 236 232 223 220 220 224 232 241 253 263 275 287 296 301 301 299 297 295 296 296 295 295 293
164 307 344 334 16 354 233 219 172 118 82 224 147 270 327 281 287 271 264 257 244 238 229 225 224 226 229 232 241 253 272 289 295 296 300 300 298 296 297 298 299 299 300 300
167 197 188 205 210 145 220 238 205 148 149 259 216 271 304 284 273 283 281 286 264 238 231 229 229 226 228 234 243 254 284 300 297 299 300 302 299 296 297 298 298 299 300 301
132 216 232 253 224 208 218 240 210 200 225 211 271 248 270 276 249 289 293 293 277 246 232 230 230 234 238 241 245 260 293 301 297 296 294 293 292 293 295 296 296 296 297 299
132 262 99 284 317 245 264 258 247 235 255 269 266 280 269 281 283 279 289 286 276 264 240 234 235 241 248 252 253 270 291 298 294 292 288 288 292 298 300 301 302 302 301 300
208 114 57 265 353 340 303 238 226 193 221 169 215 252 355 290 275 287 295 291 283 279 256 237 237 251 259 261 260 274 284 293 295 290 286 288 295 301 301 302 301 301 300 299
162 95 109 273 11 337 250 204 180 196 237 236 282 278 284 283 292 291 284 280 285 286 265 241 242 260 249 271 282 288 288 290 295 289 288 290 298 300 299 297 296 295 295 294
213 115 307 249 203 305 301 28 74 173 277 246 232 269 294 310 305 293 286 265 265 266 258 244 248 251 274 285 292 291 292 289 288 288 288 293 297 297 298 297 298 299 297 296
43 151 156 74 147 250 239 0 29 171 298 354 264 295 297 302 318 290 287 250 267 267 249 234 255 275 284 288 283 285 289 291 291 294 294 292 292 294 297 299 301 302 299 297
134 195 226 216 253 281 254 258 303 76 274 336 323 316 295 228 273 285 263 259 280 251 257 276 283 285 284 281 280 283 289 291 298 296 293 291 293 296 298 299 300 301 301 299
187 165 198 142 180 278 212 111 162 280 320 316 315 312 301 296 292 275 270 263 271 263 277 287 284 281 279 277 278 284 288 298 299 299 297 295 295 296 298 300 300 299 300 299
274 201 183 185 213 258 217 259 293 313 319 327 323 322 311 302 287 284 283 273 277 269 278 285 278 276 272 276 282 289 295 299 300 298 297 296 297 298 298 297 297 297 298 297
240 225 221 51 241 260 295 314 340 336 330 324 320 317 311 305 301 291 284 277 275 269 276 282 274 270 274 278 284 288 295 300 300 298 295 295 295 296 294 294 294 296 298 298
218 155 218 260 289 302 350 338 340 341 340 339 332 323 316 310 306 302 295 287 278 276 278 278 270 269 274 280 284 289 296 303 299 297 296 296 295 294 294 294 295 296 296 294
212 217 188 276 357 343 334 350 352 347 345 343 341 340 338 327 310 303 299 294 290 286 277 273 267 268 275 282 287 292 299 304 300 296 295 294 294 294 295 295 295 293 293 288